sat.trackr.live / text

‹ back to catalog

STARLINK-6274

NORAD 56776 · 2023-078K

PAYLOAD ACTIVE UNKNOWN

§ Identity

Operator
Country
US
Launch date
2023-05-31
Launch site
AFWTR
Launch vehicle
Mass (kg)
RCS (m²)

Purposes: comms

External: N2YO · Heavens-Above · Gunter

§ Orbital elements

Epoch: 2026-05-25T05:27:36.698112Z

Period
96.11 min
Inclination
69.9986°
Eccentricity
0.0003612
Mean motion
14.98328844 rev/d
Perigee alt
569.5 km
Apogee alt
574.6 km
Semi-major
6,950.2 km
B*
4.9195e-5
RAAN
131.6601°
Arg perigee
267.5317°
Mean anomaly
92.5429°
Rev number
16,463

§ Raw data

STARLINK-62741 56776U 23078K   26145.22750808  .00000494  00000+0  49195-4 0  99992 56776  69.9986 131.6601 0003612 267.5317  92.5429 14.98328844164633

JSON: /api/v1/satellites/56776 · /tle

For live sub-satellite position, see the globe view (requires WebGL).

§ Visibility from observer

Set your observer location to see the next 7 days of passes ≥ 10°. The values pass through the URL so the page stays shareable.

No JS? Fill the form by hand. The geolocation button needs JavaScript.